Flag for Poland Weather past 2 weeks in Rzeszów, Poland

Now
75 °F

Passing clouds.


Feels Like: 77 °F
Forecast: 54 / 82 °F
Wind: 10 mph from Northeast

Location: Rzeszow-Jasionka

Current Time: Jul 2, 2015 at 12:24:19 PM

Latest Report: Jul 2, 2015 at 12:00 PM


Visibility: N/A

Pressure: 30.30 "Hg

Humidity: 36%

Dew point: 46 °F

Location of RzeszówLocation

Historic Weather in Rzeszów — Graph

°F

Rzeszów temperature yesterday

Maximum temperature yesterday: 77 °F (at 1:30 PM)
Minimum temperature yesterday: 52 °F (at 3:30 AM)
Average temperature yesterday: 66 °F

Past Weeks' High & Low Weather Summary

 TemperatureHumidityPressure
High77 °F (Jul 1, 1:30 PM)100% (Jun 19, 7:30 PM)30.30 "Hg (Jun 19, 7:30 PM)
Low45 °F (Jun 18, 3:30 AM)33% (Jun 18, 2:30 PM)29.77 "Hg (Jun 23, 10:00 AM)
Average61 °F70%30.03 "Hg
* Reported Jun 17 11:00 AM — Jul 2 11:00 AM, Rzeszów, Weather by CustomWeather, © 2015

Note: Actual official high and low records may vary slightly from our data, if they occured in-between our weather recording intervals... More about our weather records

Advertising

Rzeszów weather history for previous 24 hours

 ConditionsComfort  
Time TempWeatherWind HumidityBarometerVisibility
11:00 AM
Thu, Jul 2
73 °FScattered clouds.9 mph38%30.30 "HgN/A
10:30 AM72 °FScattered clouds.6 mph44%30.30 "HgN/A
10:00 AM72 °FPassing clouds.5 mph47%30.30 "HgN/A
9:30 AM70 °FPassing clouds.2 mph53%30.30 "HgN/A
9:00 AM70 °FSunny.2 mph57%30.30 "Hg10 mi
8:30 AM66 °FPassing clouds.3 mph60%30.30 "HgN/A
8:00 AM64 °FPassing clouds.5 mph64%30.30 "HgN/A
7:30 AM64 °FSunny.1 mph64%30.30 "Hg10 mi
7:00 AM61 °FSunny.No wind72%30.30 "Hg10 mi
6:00 AM52 °FSunny.No wind94%30.27 "Hg10 mi
5:30 AM50 °FSunny.No wind94%30.27 "Hg10 mi
5:00 AM50 °FClear.2 mph88%30.27 "Hg10 mi
4:30 AM50 °FClear.3 mph94%30.27 "Hg10 mi
4:00 AM50 °FClear.1 mph94%30.27 "Hg10 mi
3:30 AM52 °FClear.2 mph88%30.27 "Hg10 mi
3:00 AM50 °FClear.No wind88%30.27 "Hg10 mi
2:30 AM52 °FClear.1 mph88%30.27 "Hg10 mi
2:00 AM54 °FClear.2 mph82%30.27 "Hg10 mi
1:30 AM54 °FClear.5 mph88%30.27 "Hg10 mi
1:00 AM54 °FClear.3 mph88%30.27 "Hg10 mi
12:30 AM57 °FClear.No wind77%30.24 "Hg10 mi
12:00 AM57 °FClear.No wind77%30.24 "Hg10 mi
11:00 PM
Wed, Jul 1
61 °FClear.3 mph63%30.24 "Hg10 mi
10:30 PM63 °FClear.3 mph59%30.24 "Hg10 mi
10:00 PM63 °FClear.2 mph59%30.24 "Hg10 mi
9:30 PM66 °FSunny.5 mph52%30.21 "Hg10 mi
9:00 PM68 °FSunny.5 mph49%30.21 "Hg10 mi
8:30 PM72 °FSunny.6 mph44%30.21 "Hg10 mi
8:00 PM73 °FSunny.7 mph41%30.18 "Hg10 mi
7:30 PM75 °FSunny.9 mph39%30.18 "Hg10 mi
7:00 PM75 °FPassing clouds.9 mph41%30.18 "HgN/A
6:30 PM75 °FSunny.9 mph41%30.18 "Hg10 mi
6:00 PM77 °FPassing clouds.10 mph39%30.18 "HgN/A
5:30 PM77 °FScattered clouds.9 mph42%30.18 "HgN/A
5:00 PM75 °FScattered clouds.10 mph47%30.18 "HgN/A
4:30 PM77 °FScattered clouds.10 mph42%30.18 "HgN/A
4:00 PM77 °FScattered clouds.10 mph42%30.18 "HgN/A
3:30 PM77 °FPartly sunny.8 mph39%30.18 "HgN/A
3:00 PM77 °FPartly sunny.8 mph42%30.18 "HgN/A
2:30 PM75 °FPartly sunny.6 mph44%30.18 "HgN/A
2:00 PM75 °FPartly sunny.7 mph47%30.18 "HgN/A
1:30 PM77 °FPartly sunny.7 mph44%30.18 "HgN/A
1:00 PM75 °FPartly sunny.6 mph47%30.18 "HgN/A
12:30 PM72 °FPartly sunny.9 mph61%30.21 "HgN/A
12:00 PM75 °FPartly sunny.7 mph54%30.21 "HgN/A
Weather by CustomWeather, © 2015

See weather overviewHow to use our weather pages